Lapse_Rate
6.5 6.5 6.5 6.5 6.5 6.5 6.5 6.5 6.5 6.5 6.5 6.5 6.5 6.5 6.9 7.3 7.2 7.4 7.5 7.0 6.3 5.4 5.0 4.8 4.6 4.2 4.1 4.0 3.9 3.9 3.9 4.3 4.9 4.8 4.7 4.7 4.4 4.5 4.8 4.8 5.1 5.5 5.6 5.4
6.5 6.5 6.5 6.5 6.5 6.5 6.5 6.5 6.5 6.5 6.5 6.6 7.1 7.3 7.1 7.3 7.3 7.3 6.9 6.2 5.5 5.2 5.0 4.9 4.6 4.3 3.9 4.0 4.0 3.7 4.2 4.3 4.9 4.7 4.5 4.5 4.7 4.6 4.5 4.7 4.9 5.0 4.9 5.1
6.5 6.5 6.5 6.5 6.5 6.5 6.5 6.5 6.5 6.5 6.5 6.8 6.5 6.9 7.0 7.3 7.2 6.6 6.1 5.7 5.4 5.3 5.3 5.1 5.0 4.6 4.6 4.4 4.3 4.2 4.3 4.9 5.1 5.0 4.8 4.8 4.7 4.6 4.6 4.7 4.9 4.8 4.9 5.0
6.5 6.5 6.5 6.5 6.5 6.5 6.5 6.5 6.5 6.5 6.5 6.7 6.9 7.3 7.6 7.7 7.3 7.0 6.2 6.1 6.0 5.9 5.7 5.9 5.7 5.6 5.0 5.1 5.0 4.4 4.6 4.7 4.7 4.4 4.4 4.8 4.9 4.7 4.8 5.1 4.8 4.8 4.9 4.9
6.5 6.5 6.5 6.5 6.5 6.5 6.5 6.5 6.5 6.5 6.6 7.0 7.3 7.4 7.2 6.2 5.7 6.1 6.2 6.1 6.1 6.1 5.9 6.0 5.9 5.4 4.9 5.3 5.0 4.8 4.6 4.4 4.2 4.0 4.2 5.0 5.3 5.2 5.2 4.8 5.0 5.0 4.9 4.5
6.5 6.5 6.5 6.5 6.5 7.0 6.7 6.5 6.8 6.9 6.8 6.8 7.1 6.5 6.5 6.2 5.7 6.1 5.9 5.7 5.6 5.8 5.8 6.1 5.4 4.7 4.5 5.0 4.8 4.6 4.0 3.9 4.2 4.3 4.4 4.9 5.3 5.3 5.1 4.9 4.5 4.4 4.1 4.3
6.5 6.5 6.5 6.5 6.8 7.1 6.5 6.5 7.0 7.1 7.1 7.1 6.6 7.0 6.7 5.7 6.1 6.0 6.0 6.1 5.8 5.6 5.4 5.2 4.5 4.0 4.2 4.3 4.4 3.5 3.2 3.1 3.7 4.2 4.3 4.4 4.5 4.8 4.8 4.8 4.9 5.0 4.9 5.0
6.5 6.5 6.5 7.0 6.7 6.5 6.7 7.2 7.3 7.1 6.9 6.8 6.4 6.0 6.1 6.1 6.3 6.0 5.8 5.6 5.3 5.0 5.3 5.2 4.6 3.8 4.0 4.1 3.8 3.3 3.3 3.4 3.5 3.8 4.0 4.2 4.3 4.9 5.1 5.1 4.9 5.5 5.8 5.3
6.5 6.5 6.8 7.3 7.0 6.9 6.9 7.4 7.4 7.4 6.2 6.3 6.4 6.2 6.0 6.3 6.4 6.3 5.9 5.8 5.4 4.8 4.6 5.4 5.2 4.7 4.2 4.4 3.5 3.1 3.2 4.1 4.4 4.3 4.3 4.6 4.6 4.9 5.3 5.6 5.8 6.0 5.6 5.3
6.5 6.5 6.8 7.2 6.5 6.6 6.4 6.8 5.8 5.9 6.0 5.9 6.8 6.6 6.6 6.5 6.4 6.2 5.9 5.5 5.3 5.2 5.4 5.7 5.7 5.4 5.4 4.6 4.1 3.4 3.6 3.6 3.7 4.1 4.4 5.0 4.6 4.7 4.9 5.7 5.7 5.6 5.8 5.7
6.5 6.7 7.0 6.9 6.0 7.3 5.5 5.3 5.3 5.2 5.5 5.9 6.2 6.4 6.2 6.1 6.1 6.1 6.0 5.8 5.5 5.2 5.1 5.2 5.1 5.3 5.7 4.9 4.4 4.0 4.1 4.5 4.5 4.3 4.7 4.6 4.8 5.2 5.1 5.3 4.8 4.9 5.2 5.2
6.5 6.9 6.9 6.8 6.3 5.6 5.9 5.5 5.5 6.0 5.8 5.8 6.2 6.2 6.0 6.2 6.1 5.8 6.0 6.1 5.6 5.4 5.3 5.4 5.3 5.5 5.8 5.4 4.8 4.5 4.5 4.6 4.4 4.4 5.1 5.1 5.1 5.0 4.7 3.6 3.6 3.8 3.7 4.1
6.8 5.1 5.6 5.0 5.3 5.7 6.0 5.7 5.7 6.2 6.2 6.4 6.1 6.1 5.9 5.9 6.1 6.1 6.0 5.9 5.8 5.2 5.0 5.2 5.2 5.3 5.9 5.7 5.2 5.0 5.2 5.4 5.6 5.8 6.0 6.0 6.0 5.8 5.6 5.3 4.3 3.8 4.0 4.6
5.8 5.6 6.0 5.4 6.9 6.1 6.4 6.0 6.1 5.8 6.1 6.1 6.0 5.9 5.7 5.5 5.3 5.6 5.5 5.7 5.4 5.2 4.9 5.4 5.3 5.2 5.9 5.4 4.9 4.9 5.1 4.7 5.4 6.0 5.9 6.0 5.7 5.7 6.1 5.9 5.4 5.5 5.5 4.3
5.9 5.9 6.0 6.1 6.2 6.1 6.3 6.3 6.3 6.6 6.5 6.4 6.1 5.7 5.7 5.5 5.5 5.4 5.4 5.3 5.2 4.9 4.9 5.3 5.2 5.4 6.2 5.6 4.8 4.8 4.9 5.1 5.4 5.3 5.5 5.5 5.3 5.3 5.4 5.8 6.2 6.4 6.0 5.8
6.0 6.2 6.3 6.6 6.5 6.3 6.4 6.2 6.3 6.4 6.1 5.8 5.8 6.0 6.1 5.7 5.3 5.2 5.2 5.5 5.6 6.1 5.9 5.4 5.1 5.8 6.1 5.4 5.1 5.2 5.6 5.0 4.9 5.4 5.6 5.5 5.3 5.0 4.7 4.6 4.8 5.1 5.4 5.7
6.6 7.2 6.8 6.7 6.8 6.6 6.4 6.1 5.8 5.6 5.4 5.1 5.5 5.8 5.5 5.4 5.4 5.2 5.5 5.9 6.1 5.5 5.4 5.0 5.0 5.6 5.5 5.2 5.0 5.3 5.5 5.4 4.8 4.9 5.0 4.9 4.4 4.6 5.4 6.1 6.5 6.7 6.8 6.7
6.6 6.5 6.4 6.6 6.2 5.9 5.7 5.5 5.3 5.3 5.1 5.5 5.5 5.2 5.0 5.3 5.6 5.8 6.0 6.3 5.7 5.1 5.2 5.2 5.7 5.5 5.3 5.3 5.3 5.6 5.4 5.3 4.8 4.5 4.5 4.2 4.1 5.5 7.5 7.6 7.8 7.6 7.6 8.1
6.0 5.9 5.6 5.6 5.4 5.3 5.2 5.3 5.4 5.6 5.3 5.2 5.0 5.3 5.4 5.2 5.3 5.4 5.6 5.5 5.2 5.0 4.9 6.1 5.3 4.4 5.1 5.3 4.9 5.5 5.3 5.2 5.5 5.7 5.9 5.9 6.2 6.7 7.7 8.0 7.9 7.8 7.5 7.3
5.4 5.5 5.3 5.3 5.0 4.7 4.9 5.0 5.0 5.1 5.3 5.1 5.2 5.5 5.6 5.7 5.7 5.6 5.4 5.2 5.3 5.6 5.8 5.2 4.9 4.9 5.1 5.2 4.8 5.4 5.4 5.5 5.5 5.9 6.1 6.6 7.4 8.2 8.2 7.9 7.6 7.3 7.5 7.7
5.6 5.3 5.2 5.1 5.3 5.2 5.2 5.7 5.5 5.3 5.5 5.5 5.2 5.6 5.8 5.7 5.4 5.1 4.7 5.0 5.1 5.5 5.2 4.6 4.5 4.7 5.4 5.4 5.5 5.4 5.4 5.4 5.8 6.3 6.9 7.2 7.6 7.7 7.9 7.7 7.5 7.2 7.2 7.3
4.8 4.5 4.8 4.9 4.8 4.9 5.1 5.0 4.9 4.7 4.7 4.8 4.8 4.9 4.8 4.5 4.8 4.7 4.9 4.9 5.3 5.2 5.0 4.7 4.7 4.8 5.0 5.0 5.5 5.8 5.9 6.1 6.3 6.7 6.9 7.3 7.9 8.2 7.8 7.4 7.4 7.9 7.7 7.4
3.0 3.1 3.9 4.3 4.1 4.8 5.0 4.2 3.8 4.2 4.3 4.7 4.9 4.9 5.1 5.3 5.6 5.5 5.4 6.2 6.2 5.1 4.9 5.0 5.1 5.0 5.3 6.2 6.5 6.4 6.2 6.2 6.1 6.6 6.8 6.8 7.3 7.9 7.2 7.0 7.5 7.3 6.7 6.8
4.2 4.4 4.6 5.0 4.7 3.6 3.4 4.3 4.2 4.1 4.2 4.1 4.2 4.3 4.5 4.7 5.0 5.1 4.7 4.9 4.9 5.0 5.6 5.6 5.5 5.7 6.2 6.7 6.8 6.6 6.3 6.3 6.3 6.1 6.0 6.4 7.7 7.3 7.1 7.4 6.9 6.8 6.6 6.8
4.4 4.4 4.1 3.4 3.7 4.3 4.6 4.3 4.3 4.1 4.3 4.0 3.7 3.8 4.0 4.4 4.5 5.1 5.9 5.9 5.3 5.2 5.5 6.0 6.0 5.9 6.4 6.7 7.0 6.6 6.1 5.4 5.3 5.7 6.1 7.4 7.2 7.2 6.9 6.6 6.6 6.7 6.7 6.7
5.0 5.0 5.0 4.9 4.9 5.2 5.7 5.5 5.3 5.5 5.6 5.4 5.6 5.5 5.4 5.2 5.1 5.0 4.9 5.1 5.3 5.4 5.7 5.8 6.0 6.5 6.5 6.4 6.2 6.3 5.7 5.1 5.4 5.9 7.4 7.4 7.3 6.7 6.6 6.8 6.6 6.6 6.5 6.4
4.7 4.7 4.7 4.8 4.6 4.4 4.5 4.6 4.8 4.9 5.5 5.8 5.8 5.6 6.0 6.0 6.2 6.4 6.5 6.3 6.5 6.8 6.7 6.6 6.5 6.6 6.6 6.3 6.1 6.0 5.6 6.1 7.3 7.3 7.3 7.1 6.7 6.4 6.0 5.9 5.8 5.8 5.8 5.8
Wind_Speed
3 2 3 4 6 12 10 11 8 2 9 7 10 13 3 3 2 3 2 2 7 9 9 9 10 10 10 10 11 11 11 11 10 11 10 10 9 9 9 10 10 10 10 10
3 3 5 8 13 14 16 16 15 14 13 8 5 5 6 4 2 4 3 5 7 8 9 10 10 11 11 11 11 10 10 11 11 10 10 9 9 8 8 9 9 9 10 11
2 1 5 9 20 18 10 9 14 13 8 8 7 10 6 6 6 2 3 5 7 8 8 9 10 10 11 11 10 10 10 10 10 10 10 9 9 9 9 8 8 9 10 10
2 3 5 3 3 1 12 8 16 11 6 6 6 4 4 6 4 0 2 4 5 6 8 8 8 8 9 9 9 10 10 10 10 11 11 10 9 8 8 8 8 8 9 10
3 3 8 2 2 4 6 5 10 13 10 9 6 6 4 4 1 2 3 4 5 5 7 7 7 9 10 10 10 10 11 11 12 11 11 10 10 9 8 7 7 8 9 10
3 3 5 2 3 3 1 6 5 7 11 9 7 7 4 7 2 1 1 2 4 6 6 6 8 9 9 10 10 11 11 11 11 10 9 10 10 10 8 8 9 7 10 10
7 5 7 2 6 3 3 1 6 6 8 9 4 3 5 1 1 3 4 5 6 5 6 6 7 8 9 9 10 11 11 11 11 10 10 9 9 9 9 9 9 10 10 10
5 6 7 7 5 5 2 3 6 5 5 4 2 1 1 0 1 2 3 4 5 6 7 7 7 7 9 9 10 10 11 11 10 10 8 7 9 8 9 9 9 9 9 9
7 4 2 5 2 0 1 4 5 6 5 4 3 3 2 1 2 4 5 5 5 5 7 7 7 8 9 10 10 11 11 11 11 10 9 9 9 9 8 8 8 8 7 8
2 2 9 7 3 2 1 2 4 3 3 3 2 2 2 0 2 4 5 5 6 7 7 8 8 8 8 9 9 10 11 10 10 10 11 9 6 6 6 6 7 7 7 7
5 8 5 8 9 7 6 5 5 3 3 3 3 2 1 0 2 4 5 5 6 6 7 9 10 10 10 10 10 10 10 9 9 8 9 9 7 6 6 6 5 6 6 6
6 2 2 0 7 7 8 5 4 4 4 2 2 2 1 2 2 3 5 7 7 7 8 10 10 11 11 9 9 10 11 9 9 8 8 7 7 8 8 12 12 11 13 10
3 3 1 4 5 4 5 6 5 5 3 4 2 0 2 4 4 6 6 6 8 9 9 10 10 11 10 9 8 9 9 10 9 10 9 9 9 9 9 7 12 13 13 11
5 7 3 5 2 5 5 5 5 5 3 1 2 2 3 5 6 7 7 7 9 10 10 10 10 12 11 9 9 10 10 13 8 8 9 9 9 10 9 9 10 10 10 13
5 2 2 8 7 6 5 4 4 2 1 2 3 4 5 7 8 9 9 9 9 10 11 10 10 12 10 9 8 10 9 8 9 9 9 10 9 9 9 10 10 10 11 11
5 6 7 7 7 5 4 3 1 1 3 4 5 6 7 8 9 10 11 10 8 10 12 11 12 13 11 9 9 9 9 13 12 9 9 9 9 10 9 10 10 10 10 11
10 6 6 5 4 4 2 1 3 4 5 7 8 7 8 9 10 12 12 11 10 11 12 13 14 13 11 10 9 8 8 9 14 9 9 9 9 10 10 10 10 10 11 13
6 7 5 5 5 4 4 5 6 7 8 8 8 8 10 10 12 13 13 12 12 13 14 14 13 11 11 10 9 8 8 9 9 9 8 8 8 8 10 11 12 10 10 11
4 6 5 4 4 4 5 6 7 8 9 9 9 10 11 11 12 13 13 12 13 14 15 13 12 10 12 12 11 8 9 10 10 10 9 13 11 10 9 10 11 12 12 11
5 5 4 3 3 5 7 8 9 9 10 9 10 11 13 14 13 13 13 14 14 12 14 13 14 13 12 12 13 8 10 10 11 10 9 10 11 11 11 14 13 12 12 12
6 5 5 5 5 5 7 9 9 11 12 10 11 13 14 14 13 12 11 9 15 12 11 14 11 9 8 10 10 9 10 10 10 11 11 11 11 12 12 12 11 10 11 10
4 5 6 7 8 9 9 8 9 11 12 12 12 12 12 14 13 12 13 12 11 18 10 8 8 12 11 16 9 10 11 12 11 10 10 11 11 11 12 11 11 12 12 12
7 7 9 9 9 9 9 8 10 11 12 12 13 13 11 10 9 9 9 10 7 11 8 9 14 19 20 11 9 11 12 13 12 11 11 10 11 11 11 10 12 12 11 10
8 7 9 10 8 7 11 12 11 11 11 12 13 13 11 9 9 8 10 17 22 18 11 12 15 22 22 10 10 10 10 11 11 10 10 17 11 10 11 12 12 8 10 11
9 11 10 9 10 9 11 11 10 10 10 11 12 12 13 9 9 10 8 9 17 15 11 17 20 21 10 9 10 10 10 10 10 10 11 10 10 11 11 9 10 9 9 8
11 9 9 11 10 9 9 8 8 9 8 9 9 9 9 8 8 9 10 13 11 14 11 10 8 9 9 10 11 11 11 10 10 10 11 11 11 10 9 9 9 9 8 8
9 12 9 10 9 8 9 10 8 10 10 8 10 11 10 9 9 11 13 10 10 10 9 9 9 10 10 10 11 11 8 9 13 10 10 9 7 9 8 8 8 8 8 7
Wind_Direction
307 291 248 259 216 195 202 219 225 255 216 202 190 182 232 215 213 202 208 324 345 343 342 341 339 339 340 334 332 330 321 315 311 312 306 297 290 284 273 263 258 258 259 254
228 188 223 256 247 238 233 241 252 257 257 246 200 241 240 189 142 99 57 340 335 336 341 343 340 334 332 331 328 325 321 319 318 318 315 304 292 287 280 272 264 255 251 254
287 345 288 263 233 215 208 214 231 235 245 166 178 192 190 151 136 108 334 332 338 336 340 338 335 331 330 327 325 328 326 325 328 329 322 319 312 301 290 280 275 267 264 258
292 289 243 48 84 348 216 228 217 238 215 225 208 153 156 147 141 340 325 325 332 336 337 336 330 333 329 334 337 338 339 340 337 333 326 323 317 309 303 297 285 275 270 266
212 235 307 178 197 189 201 240 213 229 204 178 159 154 154 147 83 330 326 324 324 325 321 325 337 339 338 344 347 346 345 340 338 334 326 325 323 322 316 305 295 285 279 279
172 212 234 145 159 157 183 267 185 203 192 201 168 205 170 181 214 236 303 322 321 325 320 333 345 339 338 345 345 347 340 332 327 325 319 318 317 313 310 302 297 294 286 277
216 253 281 191 143 135 223 84 150 156 153 163 199 28 85 39 27 346 339 336 329 324 328 335 337 336 339 340 344 337 328 324 323 326 323 317 313 311 310 308 300 294 290 287
192 217 266 151 131 218 50 119 154 154 154 170 111 28 32 355 308 334 336 341 346 333 335 335 336 334 330 328 328 324 325 323 324 324 323 318 319 316 317 309 304 303 301 299
217 227 63 184 264 310 194 170 165 168 152 155 184 186 167 172 344 348 350 347 347 336 325 330 334 333 324 330 330 328 327 329 332 326 322 321 321 318 317 314 308 308 306 304
251 193 234 236 197 207 181 150 126 104 139 162 176 161 158 110 5 349 346 341 337 331 330 330 338 328 322 324 327 325 325 324 324 327 328 327 319 312 309 310 310 307 308 308
243 264 258 242 224 210 152 130 131 123 133 143 146 143 157 42 347 333 321 322 323 323 324 327 333 332 332 330 331 327 326 327 326 322 319 319 316 309 305 300 281 296 299 303
252 204 251 47 180 158 158 155 142 153 149 129 147 147 195 277 300 313 316 324 324 325 324 325 325 321 322 323 322 324 325 330 328 324 321 316 311 311 253 250 273 266 265 262
270 127 116 125 141 144 145 143 139 142 139 152 150 213 302 308 311 316 315 318 316 315 310 309 310 308 312 317 316 314 314 316 319 320 321 320 317 312 309 294 248 259 262 259
171 143 151 187 167 144 134 131 129 123 126 63 332 302 295 297 301 302 303 307 303 299 294 294 294 295 305 309 308 307 308 302 301 308 309 310 311 309 306 299 301 297 256 242
175 195 81 127 126 120 119 124 114 103 25 313 306 298 304 297 292 296 299 294 290 288 287 288 290 290 302 300 295 295 299 298 304 302 298 300 299 302 301 301 298 297 303 292
127 124 125 127 123 118 134 135 147 272 288 297 299 300 296 288 287 290 292 290 288 295 296 291 287 286 295 294 294 295 299 295 296 298 299 297 300 301 304 304 303 301 302 303
140 141 131 121 130 136 172 266 270 274 278 274 276 284 285 286 287 283 283 283 283 279 283 282 280 288 288 286 289 292 297 297 299 298 300 302 299 295 295 295 296 298 299 301
120 120 129 149 169 192 220 230 244 258 263 277 288 288 285 285 284 289 288 293 292 287 281 277 277 276 275 279 278 283 285 285 287 285 284 281 281 283 290 291 292 282 283 287
153 151 155 173 197 230 263 273 270 271 279 282 285 285 287 283 282 286 290 290 286 286 284 288 283 265 272 274 272 278 277 278 283 285 283 286 284 281 276 277 283 285 285 286
160 166 172 201 213 234 266 271 278 284 282 279 279 283 288 288 286 286 286 278 275 271 279 286 286 281 276 273 271 273 275 277 282 282 282 284 280 283 280 279 284 283 283 281
193 198 215 231 257 266 269 284 289 283 284 278 272 276 279 282 282 282 278 274 277 276 272 273 267 270 275 279 285 282 280 280 280 282 283 282 284 281 280 278 281 281 285 281
219 239 250 257 261 269 261 262 269 274 276 275 271 269 273 275 278 274 262 255 272 280 283 274 270 270 273 283 280 278 278 280 281 282 282 281 282 284 281 281 285 285 284 283
232 238 254 259 256 267 283 269 265 262 267 268 267 268 267 267 271 273 275 274 256 261 266 273 277 280 284 285 279 278 279 281 280 280 281 280 281 282 281 283 286 285 284 281
250 252 260 264 265 262 272 276 266 264 262 266 264 263 262 267 269 247 251 265 272 276 270 278 282 285 287 282 277 274 275 278 278 279 281 283 279 279 277 281 284 284 288 284
255 270 273 266 263 263 265 266 273 275 271 267 265 267 260 248 238 269 270 268 272 277 278 279 281 284 281 276 276 276 279 282 281 283 281 278 280 279 280 279 290 285 289 290
261 260 265 263 260 267 270 269 263 269 270 275 277 273 272 263 250 252 263 267 266 270 269 276 275 278 277 279 280 283 284 285 285 282 282 277 281 283 293 293 293 292 293 292
263 263 265 268 259 257 253 248 251 258 265 259 266 275 277 277 272 269 268 270 272 270 271 277 278 277 280 281 285 286 284 280 275 277 278 285 299 297 293 298 295 293 291 289